Location: Newark
(45.5000°N, 11.4167°E)
Time: 17:30:46
(UTC+00:00)

Transit 2A Rocket - Pass Details

Date: 03 September 2019
Orbit: 593 x 910 km, 66.7° (Epoch: 15 October)

Event Time Altitude Azimuth Distance (km) Brightness Sun altitude
Rises 23:56:28 0° 329° (NNW) 2,995 8.6 -35.9°
Reaches altitude 10° 23:58:53 10° 334° (NNW) 2,038 7.7 -35.8°
Enters shadow 23:59:38 14° 337° (NNW) 1,751 7.3 -35.8°
Maximum altitude 00:03:21 55° 53° (NE) 741 - -35.6°
Drops below altitude 10° 00:07:36 10° 132° (SE) 1,931 - -35.4°
Sets 00:09:50 0° 136° (SE) 2,821 - -35.3°
